Olympia, WA

4:15 PM PDT on October 18, 2017 (GMT -0700)
Olympia

Weather History for KOLM - April, 2014

Change the Weather History Date:

Wednesday, April 30, 2014

  Actual Average Record
Temperature  
Mean Temperature 61 °F 51 °F  
Max Temperature 83 °F 62 °F 84 °F (1998)
Min Temperature 39 °F 40 °F 26 °F (1964)
Degree Days  
Heating Degree Days 4 14  
Month to date heating degree days 455 500  
Since 1 July heating degree days 4815 4859  
Cooling Degree Days 0 0  
Month to date cooling degree days 0 0  
Year to date cooling degree days 0 0  
Growing Degree Days 10 (Base 50)    
Moisture  
Dew Point 41 °F    
Average Humidity 55    
Maximum Humidity 92    
Minimum Humidity 18    
Precipitation  
Precipitation 0.00 in 0.09 in 0.81 in (2001)
Month to date precipitation 4.26 3.54  
Year to date precipitation 26.47 21.94  
Sea Level Pressure  
Sea Level Pressure 30.27 in    
Wind  
Wind Speed 5 mph (NNE)    
Max Wind Speed 15 mph    
Max Gust Speed 17 mph    
Visibility 10 miles    
Events      
T = Trace of Precipitation, MM = Missing Value Source: NWS Daily Summary

Daily Weather History Graph

Daily Weather History Graph

Search for Another Location

Airport or City:

Trip Planner

Search our weather history database for the weather conditions in past years. The results will help you decide how hot, cold, wet, or windy it might be!

Date:

Astronomy

Apr. 30, 2014 Rise Set
Actual Time 5:57 AM PDT 8:20 PM PDT
Civil Twilight 5:23 AM PDT 8:54 PM PDT
Nautical Twilight 4:41 AM PDT 9:37 PM PDT
Astronomical Twilight 3:53 AM PDT 10:25 PM PDT
Moon 7:00 AM PDT (4/30) 10:08 PM PDT (4/30)
Length of Visible Light 15h 30m
Length of Day
14h 23m
Waxing Crescent, 3% of the Moon is Illuminated
Apr 30
Waxing Crescent
May 6
First Quarter
May 14
Full
May 21
Last Quarter
May 28
New

Hourly Weather History & Observations

Time (PDT) Temp. Windchill Dew Point Humidity Pressure Visibility Wind Dir Wind Speed Gust Speed Precip Events Conditions
12:54 AM 48.9 °F - 42.1 °F 77% 30.38 in 10.0 mi Calm Calm - N/A   Clear
1:54 AM 46.9 °F - 42.1 °F 83% 30.38 in 10.0 mi Calm Calm - N/A   Clear
2:54 AM 45.0 °F - 42.1 °F 90% 30.38 in 10.0 mi Calm Calm - N/A   Clear
3:54 AM 43.0 °F 41.3 °F 39.9 °F 89% 30.36 in 10.0 mi ESE 3.5 mph - N/A   Clear
4:54 AM 42.1 °F - 39.9 °F 92% 30.37 in 10.0 mi Calm Calm - N/A   Clear
5:54 AM 39.9 °F - 37.9 °F 93% 30.36 in 10.0 mi Calm Calm - N/A   Clear
6:54 AM 43.0 °F - 39.0 °F 86% 30.36 in 10.0 mi Calm Calm - N/A   Clear
7:54 AM 51.8 °F - 44.6 °F 76% 30.37 in 10.0 mi Calm Calm - N/A   Clear
8:54 AM 57.9 °F - 43.0 °F 58% 30.36 in 10.0 mi NNE 4.6 mph - N/A   Clear
9:54 AM 62.1 °F - 43.0 °F 50% 30.35 in 10.0 mi North 6.9 mph - N/A   Clear
10:54 AM 66.9 °F - 44.1 °F 44% 30.34 in 10.0 mi North 5.8 mph - N/A   Clear
11:54 AM 71.1 °F - 42.1 °F 35% 30.32 in 10.0 mi North 8.1 mph - N/A   Clear
12:54 PM 75.0 °F - 42.1 °F 31% 30.30 in 10.0 mi North 6.9 mph - N/A   Clear
1:54 PM 78.1 °F - 42.1 °F 28% 30.28 in 10.0 mi NNE 8.1 mph - N/A   Clear
2:54 PM 81.0 °F - 39.9 °F 23% 30.26 in 10.0 mi NNE 11.5 mph - N/A   Clear
3:54 PM 81.0 °F - 37.0 °F 21% 30.23 in 10.0 mi NNE 10.4 mph - N/A   Clear
4:54 PM 82.0 °F - 37.0 °F 20% 30.20 in 10.0 mi North 10.4 mph - N/A   Clear
5:54 PM 82.0 °F - 36.0 °F 19% 30.17 in 10.0 mi NNE 10.4 mph - N/A   Clear
6:54 PM 80.1 °F - 37.0 °F 21% 30.16 in 10.0 mi NNE 10.4 mph - N/A   Clear
7:54 PM 77.0 °F - 39.0 °F 25% 30.14 in 10.0 mi ENE 5.8 mph - N/A   Clear
8:54 PM 64.9 °F - 44.1 °F 47% 30.14 in 9.0 mi ENE 4.6 mph - N/A   Clear
9:54 PM 57.2 °F - 44.6 °F 63% 30.15 in 10.0 mi Calm Calm - N/A   Clear
10:54 PM 59.0 °F - 45.0 °F 60% 30.14 in 10.0 mi Calm Calm - N/A   Clear
11:54 PM 55.9 °F - 45.0 °F 67% 30.14 in 10.0 mi Calm Calm - N/A   Clear